Time,TemperatureF,DewpointF,PressureIn,WindDirection,WindDirectionDegrees,WindSpeedMPH,WindSpeedGustMPH,Humidity,HourlyPrecipIn,Conditions,Clouds,dailyrainin,SoftwareType,DateUTC
2013-04-02 00:11:00,48.4,46.8,30.01,SW,225,2.2,-999.0,94,-99.99,,,0.00,Acu-Link.com,2013-04-02 07:11:00,
2013-04-02 00:41:00,47.8,45.9,30.02,WSW,247,0.0,-999.0,93,-99.99,,,0.00,Acu-Link.com,2013-04-02 07:41:00,
2013-04-02 00:56:00,47.7,46.1,30.03,WSW,247,0.0,-999.0,94,-99.99,,,0.00,Acu-Link.com,2013-04-02 07:56:00,
2013-04-02 01:12:00,47.5,45.9,30.03,West,270,0.0,-999.0,94,-99.99,,,0.00,Acu-Link.com,2013-04-02 08:12:00,
2013-04-02 01:28:00,47.5,45.9,30.03,WSW,247,0.0,-999.0,94,-99.99,,,0.00,Acu-Link.com,2013-04-02 08:28:00,
2013-04-02 01:43:00,47.5,46.1,30.03,WSW,247,0.0,-999.0,95,-99.99,,,0.00,Acu-Link.com,2013-04-02 08:43:00,
2013-04-02 01:58:00,47.5,46.4,30.04,SW,225,0.0,-999.0,96,-99.99,,,0.00,Acu-Link.com,2013-04-02 08:58:00,
2013-04-02 02:13:00,47.5,46.4,30.05,West,270,0.0,-999.0,96,-99.99,,,0.00,Acu-Link.com,2013-04-02 09:13:00,
2013-04-02 02:28:00,47.5,46.4,30.04,SW,225,0.0,-999.0,96,-99.99,,,0.00,Acu-Link.com,2013-04-02 09:28:00,
2013-04-02 02:43:00,47.1,46.0,30.03,WSW,247,0.0,-999.0,96,-99.99,,,0.00,Acu-Link.com,2013-04-02 09:43:00,
2013-04-02 02:58:00,46.8,45.7,30.03,WSW,247,0.0,-999.0,96,-99.99,,,0.00,Acu-Link.com,2013-04-02 09:58:00,
2013-04-02 03:14:00,46.8,46.0,30.03,West,270,0.0,-999.0,97,-99.99,,,0.00,Acu-Link.com,2013-04-02 10:14:00,
2013-04-02 03:29:00,46.6,45.8,30.03,West,270,0.0,-999.0,97,-99.99,,,0.00,Acu-Link.com,2013-04-02 10:29:00,
2013-04-02 03:44:00,46.6,45.8,30.04,West,270,0.0,-999.0,97,-99.99,,,0.00,Acu-Link.com,2013-04-02 10:44:00,
2013-04-02 03:59:00,46.6,45.8,30.03,WSW,247,1.7,-999.0,97,-99.99,,,0.00,Acu-Link.com,2013-04-02 10:59:00,
2013-04-02 04:14:00,46.8,46.0,30.04,WSW,247,1.7,-999.0,97,-99.99,,,0.00,Acu-Link.com,2013-04-02 11:14:00,
2013-04-02 04:30:00,46.8,46.0,30.03,SW,225,0.0,-999.0,97,-99.99,,,0.00,Acu-Link.com,2013-04-02 11:30:00,
2013-04-02 04:45:00,46.2,45.1,30.03,WSW,247,0.0,-999.0,96,-99.99,,,0.00,Acu-Link.com,2013-04-02 11:45:00,
2013-04-02 05:00:00,46.4,45.6,30.03,SW,225,0.0,-999.0,97,-99.99,,,0.00,Acu-Link.com,2013-04-02 12:00:00,
2013-04-02 05:15:00,46.0,45.2,30.03,SW,225,0.0,-999.0,97,-99.99,,,0.00,Acu-Link.com,2013-04-02 12:15:00,
2013-04-02 05:30:00,45.7,44.9,30.03,WSW,247,0.0,-999.0,97,-99.99,,,0.00,Acu-Link.com,2013-04-02 12:30:00,
2013-04-02 05:46:00,45.7,45.2,30.04,SW,225,0.0,-999.0,98,-99.99,,,0.00,Acu-Link.com,2013-04-02 12:46:00,
2013-04-02 06:31:00,45.7,45.2,30.04,WSW,247,0.0,-999.0,98,-99.99,,,0.00,Acu-Link.com,2013-04-02 13:31:00,
2013-04-02 06:46:00,45.9,45.4,30.05,WSW,247,0.0,-999.0,98,-99.99,,,0.00,Acu-Link.com,2013-04-02 13:46:00,
2013-04-02 07:02:00,46.4,46.1,30.04,WSW,247,0.0,-999.0,99,-99.99,,,0.00,Acu-Link.com,2013-04-02 14:02:00,
2013-04-02 07:17:00,47.3,47.0,30.04,WSW,247,0.0,-999.0,99,-99.99,,,0.00,Acu-Link.com,2013-04-02 14:17:00,
2013-04-02 07:32:00,49.6,48.5,30.05,SSE,157,0.0,-999.0,96,-99.99,,,0.00,Acu-Link.com,2013-04-02 14:32:00,
2013-04-02 07:47:00,52.9,50.0,30.06,East,90,0.0,-999.0,90,-99.99,,,0.00,Acu-Link.com,2013-04-02 14:47:00,
2013-04-02 08:02:00,56.1,51.3,30.05,NE,45,1.1,-999.0,84,-99.99,,,0.00,Acu-Link.com,2013-04-02 15:02:00,
2013-04-02 08:18:00,56.5,50.1,30.05,ESE,112,2.7,-999.0,79,-99.99,,,0.00,Acu-Link.com,2013-04-02 15:18:00,
2013-04-02 08:33:00,56.5,50.4,30.05,ESE,112,0.0,-999.0,80,-99.99,,,0.00,Acu-Link.com,2013-04-02 15:33:00,
2013-04-02 08:48:00,55.2,49.1,30.05,WSW,247,3.7,-999.0,80,-99.99,,,0.00,Acu-Link.com,2013-04-02 15:48:00,
2013-04-02 09:03:00,57.0,49.9,30.06,WSW,247,3.7,-999.0,77,-99.99,,,0.00,Acu-Link.com,2013-04-02 16:03:00,
2013-04-02 09:34:00,56.1,49.7,30.06,SSW,202,2.2,-999.0,79,-99.99,,,0.00,Acu-Link.com,2013-04-02 16:34:00,
2013-04-02 09:49:00,58.1,50.2,30.05,WNW,292,2.7,-999.0,75,-99.99,,,0.00,Acu-Link.com,2013-04-02 16:49:00,
2013-04-02 10:04:00,58.1,50.2,30.06,SE,135,1.7,-999.0,75,-99.99,,,0.00,Acu-Link.com,2013-04-02 17:04:00,
2013-04-02 10:19:00,61.5,52.0,30.05,NNE,22,3.7,-999.0,71,-99.99,,,0.00,Acu-Link.com,2013-04-02 17:19:00,
2013-04-02 10:35:00,62.2,51.5,30.05,NNE,22,3.7,-999.0,68,-99.99,,,0.00,Acu-Link.com,2013-04-02 17:35:00,
2013-04-02 10:50:00,62.2,51.1,30.05,NW,315,1.7,-999.0,67,-99.99,,,0.00,Acu-Link.com,2013-04-02 17:50:00,
2013-04-02 11:05:00,63.3,52.2,30.05,NE,45,4.7,-999.0,67,-99.99,,,0.00,Acu-Link.com,2013-04-02 18:05:00,
2013-04-02 11:20:00,64.9,52.4,30.06,NNW,337,3.7,-999.0,64,-99.99,,,0.00,Acu-Link.com,2013-04-02 18:20:00,
2013-04-02 11:35:00,67.3,53.4,30.06,NE,45,6.3,-999.0,61,-99.99,,,0.00,Acu-Link.com,2013-04-02 18:35:00,
2013-04-02 11:51:00,66.6,54.5,30.05,NNW,337,2.7,-999.0,65,-99.99,,,0.00,Acu-Link.com,2013-04-02 18:51:00,
2013-04-02 12:21:00,66.6,54.5,30.05,NNE,22,2.7,-999.0,65,-99.99,,,0.00,Acu-Link.com,2013-04-02 19:21:00,
2013-04-02 12:36:00,65.8,54.9,30.05,WSW,247,2.7,-999.0,68,-99.99,,,0.00,Acu-Link.com,2013-04-02 19:36:00,
2013-04-02 13:07:00,66.7,54.6,30.02,East,90,2.7,-999.0,65,-99.99,,,0.00,Acu-Link.com,2013-04-02 20:07:00,
2013-04-02 13:22:00,68.7,56.0,30.02,NNE,22,3.2,-999.0,64,-99.99,,,0.00,Acu-Link.com,2013-04-02 20:22:00,
2013-04-02 13:37:00,68.7,56.0,30.02,SE,135,4.7,-999.0,64,-99.99,,,0.00,Acu-Link.com,2013-04-02 20:37:00,
2013-04-02 13:52:00,66.9,54.7,30.02,NNE,22,2.2,-999.0,65,-99.99,,,0.00,Acu-Link.com,2013-04-02 20:52:00,
2013-04-02 14:08:00,70.3,56.2,30.00,ESE,112,2.7,-999.0,61,-99.99,,,0.00,Acu-Link.com,2013-04-02 21:08:00,
2013-04-02 14:23:00,69.3,56.2,30.00,East,90,0.0,-999.0,63,-99.99,,,0.00,Acu-Link.com,2013-04-02 21:23:00,
2013-04-02 14:38:00,68.5,55.8,30.00,WSW,247,2.2,-999.0,64,-99.99,,,0.00,Acu-Link.com,2013-04-02 21:38:00,
2013-04-02 15:08:00,68.7,56.5,30.01,South,180,2.2,-999.0,65,-99.99,,,0.00,Acu-Link.com,2013-04-02 22:08:00,
2013-04-02 15:24:00,67.8,56.0,30.00,SW,225,2.7,-999.0,66,-99.99,,,0.00,Acu-Link.com,2013-04-02 22:24:00,
2013-04-02 15:39:00,69.1,56.4,29.98,WSW,247,3.7,-999.0,64,-99.99,,,0.00,Acu-Link.com,2013-04-02 22:39:00,
2013-04-02 15:54:00,69.1,56.0,29.97,SE,135,5.3,-999.0,63,-99.99,,,0.00,Acu-Link.com,2013-04-02 22:54:00,
2013-04-02 16:09:00,69.6,56.0,29.98,NW,315,1.7,-999.0,62,-99.99,,,0.00,Acu-Link.com,2013-04-02 23:09:00,
2013-04-02 16:24:00,68.5,55.4,29.97,ENE,67,3.7,-999.0,63,-99.99,,,0.00,Acu-Link.com,2013-04-02 23:24:00,
2013-04-02 16:40:00,68.4,55.3,29.96,WNW,292,1.7,-999.0,63,-99.99,,,0.00,Acu-Link.com,2013-04-02 23:40:00,
2013-04-02 16:55:00,69.1,55.1,29.96,SW,225,1.7,-999.0,61,-99.99,,,0.00,Acu-Link.com,2013-04-02 23:55:00,
2013-04-02 17:10:00,68.9,56.2,29.96,ENE,67,2.7,-999.0,64,-99.99,,,0.00,Acu-Link.com,2013-04-03 00:10:00,
2013-04-02 17:40:00,68.0,54.9,29.95,WNW,292,5.3,-999.0,63,-99.99,,,0.00,Acu-Link.com,2013-04-03 00:40:00,
2013-04-02 17:56:00,66.2,54.9,29.96,SW,225,1.7,-999.0,67,-99.99,,,0.00,Acu-Link.com,2013-04-03 00:56:00,
2013-04-02 18:41:00,64.9,54.5,29.96,NW,315,0.0,-999.0,69,-99.99,,,0.00,Acu-Link.com,2013-04-03 01:41:00,
2013-04-02 18:57:00,62.4,53.3,29.93,SW,225,2.2,-999.0,72,-99.99,,,0.00,Acu-Link.com,2013-04-03 01:57:00,
2013-04-02 19:12:00,60.1,52.1,29.95,SW,225,4.7,-999.0,75,-99.99,,,0.00,Acu-Link.com,2013-04-03 02:12:00,
2013-04-02 19:27:00,58.6,51.4,29.94,SSW,202,2.7,-999.0,77,-99.99,,,0.00,Acu-Link.com,2013-04-03 02:27:00,
2013-04-02 19:42:00,57.2,50.7,29.95,SSE,157,0.0,-999.0,79,-99.99,,,0.00,Acu-Link.com,2013-04-03 02:42:00,
2013-04-02 19:57:00,55.6,50.2,29.95,NNW,337,2.7,-999.0,82,-99.99,,,0.00,Acu-Link.com,2013-04-03 02:57:00,
2013-04-02 20:13:00,54.5,50.1,29.96,WNW,292,1.7,-999.0,85,-99.99,,,0.00,Acu-Link.com,2013-04-03 03:13:00,
2013-04-02 20:28:00,53.8,49.4,29.97,West,270,1.7,-999.0,85,-99.99,,,0.00,Acu-Link.com,2013-04-03 03:28:00,
2013-04-02 20:43:00,53.1,48.7,29.97,WNW,292,0.0,-999.0,85,-99.99,,,0.00,Acu-Link.com,2013-04-03 03:43:00,
2013-04-02 20:58:00,52.3,48.9,29.98,West,270,0.0,-999.0,88,-99.99,,,0.00,Acu-Link.com,2013-04-03 03:58:00,
2013-04-02 21:13:00,51.8,49.0,29.98,SW,225,0.0,-999.0,90,-99.99,,,0.00,Acu-Link.com,2013-04-03 04:13:00,
2013-04-02 21:29:00,51.6,48.8,29.99,WNW,292,0.0,-999.0,90,-99.99,,,0.00,Acu-Link.com,2013-04-03 04:29:00,
2013-04-02 21:44:00,50.9,47.8,30.00,SSW,202,0.0,-999.0,89,-99.99,,,0.00,Acu-Link.com,2013-04-03 04:44:00,
2013-04-02 21:59:00,50.4,47.9,30.00,SW,225,1.1,-999.0,91,-99.99,,,0.00,Acu-Link.com,2013-04-03 04:59:00,
2013-04-02 22:14:00,50.0,46.9,30.01,NW,315,1.1,-999.0,89,-99.99,,,0.00,Acu-Link.com,2013-04-03 05:14:00,
2013-04-02 22:30:00,49.6,46.8,30.00,West,270,0.0,-999.0,90,-99.99,,,0.00,Acu-Link.com,2013-04-03 05:30:00,
2013-04-02 22:45:00,49.3,47.1,30.01,South,180,2.2,-999.0,92,-99.99,,,0.00,Acu-Link.com,2013-04-03 05:45:00,
2013-04-02 23:00:00,48.9,46.1,30.02,WSW,247,0.0,-999.0,90,-99.99,,,0.00,Acu-Link.com,2013-04-03 06:00:00,
2013-04-02 23:16:00,49.3,47.1,30.01,West,270,0.0,-999.0,92,-99.99,,,0.00,Acu-Link.com,2013-04-03 06:16:00,
2013-04-02 23:46:00,50.7,49.0,30.00,ENE,67,0.0,-999.0,94,-99.99,,,0.00,Acu-Link.com,2013-04-03 06:46:00,